Location: Winnipeg
(49.8830°N, 97.1670°W)
Time: 03:33:03
(UTC-05:00)

Envisat - Pass Details

Date: 07 March 2024
Orbit: 762 x 764 km, 98.3° (Epoch: 21 April)

Event Time Altitude Azimuth Distance (km) Brightness Sun altitude
Rises 05:33:29 0° 4° (N) 3,243 6.4 -14.4°
Reaches altitude 10° 05:36:18 10° 348° (NNW) 2,312 5.5 -14.0°
Maximum altitude 05:39:57 20° 302° (WNW) 1,699 4.4 -13.4°
Enters shadow 05:41:32 18° 278° (W) 1,826 4.4 -13.1°
